Location: Tel Aviv
(32.0670°N, 34.7670°E)
Time: 03:21:58
(UTC+03:00)

Tiros 1 - Pass Details

Date: 25 January 2022
Orbit: 629 x 663 km, 48.4° (Epoch: 26 May)

Event Time Altitude Azimuth Distance (km) Brightness Sun altitude
Rises 02:28:51 0° 317° (NW) 2,985 - -52.8°
Reaches altitude 10° 02:32:25 10° 344° (NNW) 2,065 - -52.0°
Maximum altitude 02:34:45 13° 14° (NNE) 1,837 - -51.5°
Drops below altitude 10° 02:37:05 10° 44° (NE) 2,053 - -51.1°
Sets 02:40:37 0° 71° (ENE) 2,954 - -50.3°
